Time,TemperatureF,DewpointF,PressureIn,WindDirection,WindDirectionDegrees,WindSpeedMPH,WindSpeedGustMPH,Humidity,HourlyPrecipIn,Conditions,Clouds,dailyrainin,SoftwareType,DateUTC
2013-07-10 00:01:00,67.7,63.6,30.09,East,90,0.4,1.1,87,0.00,,,0.00,WUHU216HW,2013-07-10 04:01:00,
2013-07-10 00:06:00,67.7,63.6,30.09,East,90,0.0,0.4,87,0.00,,,0.00,WUHU216HW,2013-07-10 04:06:00,
2013-07-10 00:11:00,67.7,63.4,30.09,East,90,0.0,0.0,86,0.00,,,0.00,WUHU216HW,2013-07-10 04:11:00,
2013-07-10 00:16:00,67.5,63.5,30.09,East,90,0.0,0.0,87,0.00,,,0.00,WUHU216HW,2013-07-10 04:16:00,
2013-07-10 00:21:00,67.5,63.5,30.09,East,90,0.0,0.0,87,0.00,,,0.00,WUHU216HW,2013-07-10 04:21:00,
2013-07-10 00:26:00,67.5,63.5,30.09,East,90,0.0,0.0,87,0.00,,,0.00,WUHU216HW,2013-07-10 04:26:00,
2013-07-10 00:31:00,67.5,63.5,30.09,East,90,0.0,0.0,87,0.00,,,0.00,WUHU216HW,2013-07-10 04:31:00,
2013-07-10 00:36:00,67.5,63.8,30.08,East,90,0.0,0.0,88,0.00,,,0.00,WUHU216HW,2013-07-10 04:36:00,
2013-07-10 00:41:00,67.5,63.8,30.09,East,90,0.0,0.0,88,0.00,,,0.00,WUHU216HW,2013-07-10 04:41:00,
2013-07-10 00:46:00,67.5,63.5,30.08,East,90,0.0,0.0,87,0.00,,,0.00,WUHU216HW,2013-07-10 04:46:00,
2013-07-10 00:51:00,67.5,63.5,30.08,East,90,0.0,0.0,87,0.00,,,0.00,WUHU216HW,2013-07-10 04:51:00,
2013-07-10 00:56:00,67.3,63.3,30.08,East,90,0.0,0.0,87,0.00,,,0.00,WUHU216HW,2013-07-10 04:56:00,
2013-07-10 01:01:00,67.5,63.5,30.08,East,90,0.0,0.0,87,0.00,,,0.00,WUHU216HW,2013-07-10 05:01:00,
2013-07-10 01:06:00,67.3,63.3,30.08,East,90,0.0,0.0,87,0.00,,,0.00,WUHU216HW,2013-07-10 05:06:00,
2013-07-10 01:11:00,67.5,63.5,30.08,East,90,0.0,0.0,87,0.00,,,0.00,WUHU216HW,2013-07-10 05:11:00,
2013-07-10 01:16:00,67.5,63.5,30.08,East,90,0.0,0.0,87,0.00,,,0.00,WUHU216HW,2013-07-10 05:16:00,
2013-07-10 01:21:00,67.3,63.3,30.08,East,90,0.0,0.0,87,0.00,,,0.00,WUHU216HW,2013-07-10 05:21:00,
2013-07-10 01:26:00,67.3,63.3,30.07,East,90,0.0,0.0,87,0.00,,,0.00,WUHU216HW,2013-07-10 05:26:00,
2013-07-10 01:31:00,67.3,63.3,30.07,East,90,0.0,0.0,87,0.00,,,0.00,WUHU216HW,2013-07-10 05:31:00,
2013-07-10 01:36:00,67.5,63.5,30.07,East,90,0.0,0.0,87,0.00,,,0.00,WUHU216HW,2013-07-10 05:36:00,
2013-07-10 01:41:00,67.5,63.5,30.07,East,90,0.0,0.0,87,0.00,,,0.00,WUHU216HW,2013-07-10 05:41:00,
2013-07-10 01:46:00,67.5,63.5,30.07,East,90,0.0,0.0,87,0.00,,,0.00,WUHU216HW,2013-07-10 05:46:00,
2013-07-10 01:51:00,67.3,63.3,30.07,East,90,0.0,0.0,87,0.00,,,0.00,WUHU216HW,2013-07-10 05:51:00,
2013-07-10 01:56:00,67.3,63.3,30.07,East,90,0.0,0.4,87,0.00,,,0.00,WUHU216HW,2013-07-10 05:56:00,
2013-07-10 02:01:00,67.3,63.3,30.07,East,90,0.0,0.4,87,0.00,,,0.00,WUHU216HW,2013-07-10 06:01:00,
2013-07-10 02:06:00,67.3,63.3,30.07,East,90,0.4,0.4,87,0.00,,,0.00,WUHU216HW,2013-07-10 06:06:00,
2013-07-10 02:11:00,67.3,63.6,30.06,East,90,0.0,0.4,88,0.00,,,0.00,WUHU216HW,2013-07-10 06:11:00,
2013-07-10 02:12:00,67.3,63.6,30.06,East,90,0.0,0.4,88,0.00,,,0.00,WUHU216HW,2013-07-10 06:12:00,
2013-07-10 02:17:00,67.3,63.3,30.06,East,90,0.0,0.0,87,0.00,,,0.00,WUHU216HW,2013-07-10 06:17:00,
2013-07-10 02:22:00,67.3,63.6,30.06,East,90,0.0,0.0,88,0.00,,,0.00,WUHU216HW,2013-07-10 06:22:00,
2013-07-10 02:27:00,67.3,63.6,30.06,East,90,0.2,0.4,88,0.00,,,0.00,WUHU216HW,2013-07-10 06:27:00,
2013-07-10 02:32:00,67.1,63.5,30.06,East,90,0.4,0.7,88,0.00,,,0.00,WUHU216HW,2013-07-10 06:32:00,
2013-07-10 02:37:00,67.1,63.1,30.06,East,90,0.0,0.7,87,0.00,,,0.00,WUHU216HW,2013-07-10 06:37:00,
2013-07-10 02:42:00,67.1,63.5,30.05,East,90,0.0,0.0,88,0.00,,,0.00,WUHU216HW,2013-07-10 06:42:00,
2013-07-10 02:47:00,67.1,63.5,30.05,East,90,0.0,0.0,88,0.00,,,0.00,WUHU216HW,2013-07-10 06:47:00,
2013-07-10 02:52:00,67.1,63.5,30.05,East,90,0.4,0.4,88,0.00,,,0.00,WUHU216HW,2013-07-10 06:52:00,
2013-07-10 02:57:00,67.1,63.5,30.05,East,90,0.7,0.7,88,0.00,,,0.00,WUHU216HW,2013-07-10 06:57:00,
2013-07-10 03:02:00,67.1,63.5,30.05,East,90,0.0,0.7,88,0.00,,,0.00,WUHU216HW,2013-07-10 07:02:00,
2013-07-10 03:07:00,67.1,63.5,30.04,East,90,0.0,0.0,88,0.00,,,0.00,WUHU216HW,2013-07-10 07:07:00,
2013-07-10 03:12:00,67.1,63.5,30.04,East,90,0.0,0.0,88,0.00,,,0.00,WUHU216HW,2013-07-10 07:12:00,
2013-07-10 03:17:00,67.1,63.5,30.04,East,90,0.0,0.0,88,0.00,,,0.00,WUHU216HW,2013-07-10 07:17:00,
2013-07-10 03:22:00,67.1,63.5,30.04,East,90,0.0,0.0,88,0.00,,,0.00,WUHU216HW,2013-07-10 07:22:00,
2013-07-10 03:27:00,67.1,63.5,30.03,East,90,0.0,0.0,88,0.00,,,0.00,WUHU216HW,2013-07-10 07:27:00,
2013-07-10 03:32:00,67.1,63.5,30.03,East,90,0.0,0.0,88,0.00,,,0.00,WUHU216HW,2013-07-10 07:32:00,
2013-07-10 03:37:00,67.0,63.3,30.04,East,90,0.0,0.0,88,0.00,,,0.00,WUHU216HW,2013-07-10 07:37:00,
2013-07-10 03:42:00,67.0,63.3,30.03,East,90,0.0,0.0,88,0.00,,,0.00,WUHU216HW,2013-07-10 07:42:00,
2013-07-10 03:47:00,67.0,63.3,30.04,East,90,0.0,0.0,88,0.00,,,0.00,WUHU216HW,2013-07-10 07:47:00,
2013-07-10 03:52:00,67.0,63.3,30.04,ENE,68,0.0,0.0,88,0.00,,,0.00,WUHU216HW,2013-07-10 07:52:00,
2013-07-10 03:57:00,67.0,63.3,30.03,ENE,68,0.0,0.0,88,0.00,,,0.00,WUHU216HW,2013-07-10 07:57:00,
2013-07-10 04:02:00,67.1,63.5,30.03,ENE,68,0.4,0.4,88,0.00,,,0.00,WUHU216HW,2013-07-10 08:02:00,
2013-07-10 04:07:00,67.0,63.3,30.03,NE,45,0.0,0.4,88,0.00,,,0.00,WUHU216HW,2013-07-10 08:07:00,
2013-07-10 04:12:00,67.0,63.3,30.03,NE,45,0.0,0.2,88,0.00,,,0.00,WUHU216HW,2013-07-10 08:12:00,
2013-07-10 04:17:00,67.0,63.3,30.03,NE,45,0.0,0.0,88,0.00,,,0.00,WUHU216HW,2013-07-10 08:17:00,
2013-07-10 04:22:00,67.0,63.3,30.03,NE,45,0.0,0.0,88,0.00,,,0.00,WUHU216HW,2013-07-10 08:22:00,
2013-07-10 04:27:00,67.0,63.3,30.03,NE,45,0.2,0.2,88,0.00,,,0.00,WUHU216HW,2013-07-10 08:27:00,
2013-07-10 04:32:00,66.8,63.1,30.03,NE,45,0.4,0.4,88,0.00,,,0.00,WUHU216HW,2013-07-10 08:32:00,
2013-07-10 04:37:00,67.0,63.3,30.03,NE,45,0.7,0.7,88,0.00,,,0.00,WUHU216HW,2013-07-10 08:37:00,
2013-07-10 04:42:00,66.8,63.1,30.03,NE,45,0.0,0.7,88,0.00,,,0.00,WUHU216HW,2013-07-10 08:42:00,
2013-07-10 04:47:00,66.8,63.1,30.03,NE,45,0.0,0.0,88,0.00,,,0.00,WUHU216HW,2013-07-10 08:47:00,
2013-07-10 04:52:00,67.0,63.3,30.03,NE,45,0.0,0.0,88,0.00,,,0.00,WUHU216HW,2013-07-10 08:52:00,
2013-07-10 04:57:00,67.0,63.3,30.03,NE,45,0.0,0.0,88,0.00,,,0.00,WUHU216HW,2013-07-10 08:57:00,
2013-07-10 05:02:00,67.0,63.3,30.03,NE,45,0.0,0.0,88,0.00,,,0.00,WUHU216HW,2013-07-10 09:02:00,
2013-07-10 05:07:00,66.8,63.1,30.03,NNE,23,0.0,0.2,88,0.00,,,0.00,WUHU216HW,2013-07-10 09:07:00,
2013-07-10 05:12:00,66.8,63.1,30.03,NNE,23,0.0,0.2,88,0.00,,,0.00,WUHU216HW,2013-07-10 09:12:00,
2013-07-10 05:17:00,67.0,63.3,30.03,NNE,23,0.0,0.0,88,0.00,,,0.00,WUHU216HW,2013-07-10 09:17:00,
2013-07-10 05:22:00,66.8,63.1,30.03,NNE,23,0.0,0.0,88,0.00,,,0.00,WUHU216HW,2013-07-10 09:22:00,
2013-07-10 05:27:00,66.8,63.1,30.03,NNE,23,0.0,0.0,88,0.00,,,0.00,WUHU216HW,2013-07-10 09:27:00,
2013-07-10 05:32:00,66.8,63.1,30.02,NNE,23,0.0,0.0,88,0.00,,,0.00,WUHU216HW,2013-07-10 09:32:00,
2013-07-10 05:37:00,66.8,63.1,30.03,NNE,23,0.0,0.0,88,0.00,,,0.00,WUHU216HW,2013-07-10 09:37:00,
2013-07-10 05:42:00,66.8,63.1,30.02,NNE,23,0.0,0.0,88,0.00,,,0.00,WUHU216HW,2013-07-10 09:42:00,
2013-07-10 05:47:00,66.8,63.1,30.02,NNE,23,0.0,0.0,88,0.00,,,0.00,WUHU216HW,2013-07-10 09:47:00,
2013-07-10 05:52:00,66.6,62.9,30.02,NNE,23,0.0,0.0,88,0.00,,,0.00,WUHU216HW,2013-07-10 09:52:00,
2013-07-10 05:57:00,66.6,62.9,30.02,NNE,23,0.0,0.7,88,0.00,,,0.00,WUHU216HW,2013-07-10 09:57:00,
2013-07-10 06:02:00,66.6,62.9,30.02,NNE,23,0.0,0.7,88,0.00,,,0.00,WUHU216HW,2013-07-10 10:02:00,
2013-07-10 06:07:00,66.6,62.9,30.02,NNW,338,0.0,0.9,88,0.00,,,0.00,WUHU216HW,2013-07-10 10:07:00,
2013-07-10 06:12:00,66.6,62.9,30.02,NNW,338,0.0,0.9,88,0.00,,,0.00,WUHU216HW,2013-07-10 10:12:00,
2013-07-10 06:17:00,66.6,62.9,30.02,ENE,68,0.9,1.1,88,0.00,,,0.00,WUHU216HW,2013-07-10 10:17:00,
2013-07-10 06:22:00,66.6,62.9,30.02,ENE,68,0.4,1.1,88,0.00,,,0.00,WUHU216HW,2013-07-10 10:22:00,
2013-07-10 06:27:00,66.6,62.9,30.02,ENE,68,0.3,0.9,88,0.00,,,0.00,WUHU216HW,2013-07-10 10:27:00,
2013-07-10 06:32:00,66.6,62.9,30.02,ENE,68,0.4,0.9,88,0.00,,,0.00,WUHU216HW,2013-07-10 10:32:00,
2013-07-10 06:37:00,66.6,62.9,30.01,East,90,1.1,1.1,88,0.00,,,0.00,WUHU216HW,2013-07-10 10:37:00,
2013-07-10 06:42:00,66.6,62.9,30.01,ESE,113,0.4,1.1,88,0.00,,,0.00,WUHU216HW,2013-07-10 10:42:00,
2013-07-10 06:47:00,66.4,62.7,30.01,ESE,113,0.0,0.7,88,0.00,,,0.00,WUHU216HW,2013-07-10 10:47:00,
2013-07-10 06:52:00,66.4,62.7,30.02,ESE,113,0.7,0.9,88,0.00,,,0.00,WUHU216HW,2013-07-10 10:52:00,
2013-07-10 06:57:00,66.4,62.7,30.02,ESE,113,1.1,1.1,88,0.00,,,0.00,WUHU216HW,2013-07-10 10:57:00,
2013-07-10 07:02:00,66.6,62.9,30.01,ESE,113,1.1,1.1,88,0.00,,,0.00,WUHU216HW,2013-07-10 11:02:00,
2013-07-10 07:07:00,66.6,62.9,30.01,SSE,158,0.7,1.1,88,0.00,,,0.00,WUHU216HW,2013-07-10 11:07:00,
2013-07-10 07:12:00,66.6,62.9,30.01,SSE,158,1.0,1.1,88,0.00,,,0.00,WUHU216HW,2013-07-10 11:12:00,
2013-07-10 07:17:00,66.6,63.2,30.01,SSE,158,1.1,1.1,89,0.00,,,0.00,WUHU216HW,2013-07-10 11:17:00,
2013-07-10 07:22:00,66.6,63.2,30.00,SSE,158,0.4,1.1,89,0.00,,,0.00,WUHU216HW,2013-07-10 11:22:00,
2013-07-10 07:27:00,66.8,63.4,30.00,SSE,158,0.7,1.3,89,0.00,,,0.00,WUHU216HW,2013-07-10 11:27:00,
2013-07-10 07:32:00,66.6,63.2,30.01,SSE,158,1.1,1.3,89,0.00,,,0.00,WUHU216HW,2013-07-10 11:32:00,
2013-07-10 07:37:00,66.6,63.2,30.00,SSE,158,1.1,1.1,89,0.00,,,0.00,WUHU216HW,2013-07-10 11:37:00,
2013-07-10 07:42:00,66.6,63.2,30.00,SSE,158,0.6,1.1,89,0.00,,,0.00,WUHU216HW,2013-07-10 11:42:00,
2013-07-10 07:47:00,66.6,63.2,30.00,SSE,158,1.1,1.1,89,0.00,,,0.00,WUHU216HW,2013-07-10 11:47:00,
2013-07-10 07:52:00,66.6,63.2,30.00,SSE,158,0.4,1.1,89,0.00,,,0.00,WUHU216HW,2013-07-10 11:52:00,
2013-07-10 07:57:00,66.6,62.9,30.00,SSE,158,0.4,0.7,88,0.00,,,0.00,WUHU216HW,2013-07-10 11:57:00,
2013-07-10 08:02:00,66.6,62.9,30.00,SSE,158,0.0,0.4,88,0.00,,,0.00,WUHU216HW,2013-07-10 12:02:00,
2013-07-10 08:07:00,66.6,62.9,30.00,SSE,158,0.0,0.4,88,0.00,,,0.00,WUHU216HW,2013-07-10 12:07:00,
2013-07-10 08:12:00,66.6,62.9,30.00,SSE,158,0.7,0.7,88,0.00,,,0.00,WUHU216HW,2013-07-10 12:12:00,
2013-07-10 08:17:00,66.6,62.9,30.00,SSE,158,0.9,0.9,88,0.00,,,0.00,WUHU216HW,2013-07-10 12:17:00,
2013-07-10 08:22:00,66.6,62.9,29.99,SSE,158,0.0,1.1,88,0.00,,,0.00,WUHU216HW,2013-07-10 12:22:00,
2013-07-10 08:27:00,66.6,62.9,29.99,SSE,158,0.4,1.1,88,0.00,,,0.00,WUHU216HW,2013-07-10 12:27:00,
2013-07-10 08:32:00,66.8,63.1,29.99,SSE,158,0.0,0.4,88,0.00,,,0.00,WUHU216HW,2013-07-10 12:32:00,
2013-07-10 08:37:00,66.8,63.1,29.99,SSE,158,0.0,0.4,88,0.00,,,0.00,WUHU216HW,2013-07-10 12:37:00,
2013-07-10 08:42:00,66.8,63.1,29.99,SSE,158,0.0,0.4,88,0.00,,,0.00,WUHU216HW,2013-07-10 12:42:00,
2013-07-10 08:47:00,66.8,63.1,29.99,SSE,158,0.0,0.0,88,0.00,,,0.00,WUHU216HW,2013-07-10 12:47:00,
2013-07-10 08:52:00,67.0,63.3,29.99,SSE,158,0.0,0.0,88,0.00,,,0.00,WUHU216HW,2013-07-10 12:52:00,
2013-07-10 08:57:00,67.0,63.3,29.99,SSE,158,0.0,0.0,88,0.00,,,0.00,WUHU216HW,2013-07-10 12:57:00,
2013-07-10 09:02:00,66.8,63.1,29.99,SSE,158,0.0,0.0,88,0.01,,,0.01,WUHU216HW,2013-07-10 13:02:00,
2013-07-10 09:07:00,67.0,63.3,29.98,SE,135,0.9,0.9,88,0.03,,,0.03,WUHU216HW,2013-07-10 13:07:00,
2013-07-10 09:12:00,67.0,63.3,29.98,WSW,248,0.7,0.9,88,0.05,,,0.05,WUHU216HW,2013-07-10 13:12:00,
2013-07-10 09:17:00,67.1,63.5,29.98,WSW,248,0.0,0.7,88,0.05,,,0.05,WUHU216HW,2013-07-10 13:17:00,
2013-07-10 09:22:00,67.1,63.5,29.98,WSW,248,0.0,0.0,88,0.05,,,0.05,WUHU216HW,2013-07-10 13:22:00,
2013-07-10 09:27:00,67.3,63.6,29.99,WSW,248,0.0,0.0,88,0.05,,,0.05,WUHU216HW,2013-07-10 13:27:00,
2013-07-10 09:32:00,67.1,63.5,29.98,WSW,248,0.0,0.0,88,0.05,,,0.05,WUHU216HW,2013-07-10 13:32:00,
2013-07-10 09:37:00,67.1,63.5,29.98,WSW,248,0.4,0.4,88,0.05,,,0.05,WUHU216HW,2013-07-10 13:37:00,
2013-07-10 09:42:00,67.3,63.6,29.98,WSW,248,0.2,0.4,88,0.05,,,0.05,WUHU216HW,2013-07-10 13:42:00,
2013-07-10 09:47:00,67.1,63.7,29.98,WSW,248,0.4,0.7,89,0.05,,,0.05,WUHU216HW,2013-07-10 13:47:00,
2013-07-10 09:52:00,67.3,63.6,29.98,West,266,1.0,1.6,88,0.05,,,0.05,WUHU216HW,2013-07-10 13:52:00,
2013-07-10 09:57:00,67.3,63.9,29.98,SW,219,0.8,1.6,89,0.05,,,0.05,WUHU216HW,2013-07-10 13:57:00,
2013-07-10 10:02:00,67.5,64.1,29.99,SW,222,0.8,1.8,89,0.04,,,0.05,WUHU216HW,2013-07-10 14:02:00,
2013-07-10 10:07:00,67.5,64.1,29.98,SW,225,0.4,1.8,89,0.00,,,0.05,WUHU216HW,2013-07-10 14:07:00,
2013-07-10 10:12:00,67.7,64.3,29.98,SW,225,0.0,0.4,89,0.00,,,0.05,WUHU216HW,2013-07-10 14:12:00,
2013-07-10 10:17:00,67.9,64.4,29.98,SW,225,0.0,0.0,89,0.00,,,0.05,WUHU216HW,2013-07-10 14:17:00,
2013-07-10 10:22:00,67.7,64.0,29.97,West,270,2.2,2.2,88,0.00,,,0.05,WUHU216HW,2013-07-10 14:22:00,
2013-07-10 10:27:00,67.7,64.3,29.97,SE,135,0.2,2.2,89,0.00,,,0.05,WUHU216HW,2013-07-10 14:27:00,
2013-07-10 10:32:00,67.7,64.3,29.97,SW,225,0.9,0.9,89,0.00,,,0.05,WUHU216HW,2013-07-10 14:32:00,
2013-07-10 10:37:00,67.9,64.4,29.97,South,180,1.3,1.3,89,0.00,,,0.05,WUHU216HW,2013-07-10 14:37:00,
2013-07-10 10:42:00,67.9,64.4,29.97,South,180,0.3,1.3,89,0.00,,,0.05,WUHU216HW,2013-07-10 14:42:00,
2013-07-10 10:47:00,67.9,64.4,29.97,SW,225,0.9,2.2,89,0.00,,,0.05,WUHU216HW,2013-07-10 14:47:00,
2013-07-10 10:52:00,68.0,65.0,29.97,South,180,2.2,2.2,90,0.00,,,0.05,WUHU216HW,2013-07-10 14:52:00,
2013-07-10 10:57:00,68.0,65.0,29.97,South,180,1.8,2.2,90,0.00,,,0.05,WUHU216HW,2013-07-10 14:57:00,
2013-07-10 11:02:00,68.2,65.2,29.97,South,180,1.6,2.0,90,0.00,,,0.05,WUHU216HW,2013-07-10 15:02:00,
2013-07-10 11:07:00,68.4,65.3,29.97,SSE,158,1.1,2.0,90,0.00,,,0.05,WUHU216HW,2013-07-10 15:07:00,
2013-07-10 11:12:00,68.8,65.3,29.96,SSW,203,0.9,1.6,89,0.00,,,0.05,WUHU216HW,2013-07-10 15:12:00,
2013-07-10 11:17:00,68.8,65.3,29.96,WSW,248,0.9,1.6,89,0.00,,,0.05,WUHU216HW,2013-07-10 15:17:00,
2013-07-10 11:22:00,69.1,65.7,29.96,SSW,203,1.6,1.6,89,0.00,,,0.05,WUHU216HW,2013-07-10 15:22:00,
2013-07-10 11:27:00,69.7,66.2,29.96,South,180,1.3,1.6,89,0.00,,,0.05,WUHU216HW,2013-07-10 15:27:00,
2013-07-10 11:32:00,70.0,66.6,29.96,South,180,1.1,1.3,89,0.00,,,0.05,WUHU216HW,2013-07-10 15:32:00,
2013-07-10 11:37:00,70.2,66.8,29.95,South,180,0.0,1.1,89,0.00,,,0.05,WUHU216HW,2013-07-10 15:37:00,
2013-07-10 11:42:00,70.4,67.0,29.95,ENE,68,0.0,1.1,89,0.00,,,0.05,WUHU216HW,2013-07-10 15:42:00,
2013-07-10 11:47:00,70.7,67.3,29.95,SSE,158,0.7,1.1,89,0.00,,,0.05,WUHU216HW,2013-07-10 15:47:00,
2013-07-10 11:52:00,71.1,67.3,29.95,SW,225,1.1,1.1,88,0.00,,,0.05,WUHU216HW,2013-07-10 15:52:00,
2013-07-10 11:57:00,71.5,67.7,29.95,SSW,203,0.0,1.1,88,0.00,,,0.05,WUHU216HW,2013-07-10 15:57:00,
2013-07-10 12:02:00,71.3,67.5,29.95,SSE,158,1.1,2.0,88,0.00,,,0.05,WUHU216HW,2013-07-10 16:02:00,
2013-07-10 12:07:00,71.5,67.7,29.94,SSE,158,1.8,2.0,88,0.00,,,0.05,WUHU216HW,2013-07-10 16:07:00,
2013-07-10 12:12:00,71.8,68.0,29.94,SE,135,0.0,1.8,88,0.00,,,0.05,WUHU216HW,2013-07-10 16:12:00,
2013-07-10 12:17:00,72.0,67.6,29.94,SSW,203,1.8,1.8,86,0.00,,,0.05,WUHU216HW,2013-07-10 16:17:00,
2013-07-10 12:22:00,72.2,68.1,29.94,South,180,1.3,1.8,87,0.00,,,0.05,WUHU216HW,2013-07-10 16:22:00,
2013-07-10 12:27:00,72.5,68.1,29.93,South,180,1.0,1.8,86,0.00,,,0.05,WUHU216HW,2013-07-10 16:27:00,
2013-07-10 12:32:00,73.4,69.0,29.93,SSE,158,1.8,1.8,86,0.00,,,0.05,WUHU216HW,2013-07-10 16:32:00,
2013-07-10 12:37:00,73.6,68.5,29.93,WSW,248,1.6,1.8,84,0.00,,,0.05,WUHU216HW,2013-07-10 16:37:00,
2013-07-10 12:42:00,73.8,68.7,29.92,SSE,158,1.6,2.5,84,0.00,,,0.05,WUHU216HW,2013-07-10 16:42:00,
2013-07-10 12:47:00,74.2,69.0,29.92,South,180,1.4,2.5,84,0.00,,,0.05,WUHU216HW,2013-07-10 16:47:00,
2013-07-10 12:52:00,75.8,69.9,29.92,South,176,1.5,3.4,82,0.00,,,0.05,WUHU216HW,2013-07-10 16:52:00,
2013-07-10 12:57:00,76.0,69.4,29.92,SW,225,2.5,3.4,80,0.00,,,0.05,WUHU216HW,2013-07-10 16:57:00,
2013-07-10 13:02:00,75.1,69.3,29.92,South,178,1.2,2.5,82,0.00,,,0.05,WUHU216HW,2013-07-10 17:02:00,
2013-07-10 13:07:00,74.5,68.8,29.91,SSE,158,1.1,2.5,82,0.00,,,0.05,WUHU216HW,2013-07-10 17:07:00,
2013-07-10 13:12:00,75.2,69.8,29.91,SSE,158,1.8,2.5,83,0.00,,,0.05,WUHU216HW,2013-07-10 17:12:00,
2013-07-10 13:17:00,76.0,70.5,29.91,SSE,158,1.1,1.8,83,0.00,,,0.05,WUHU216HW,2013-07-10 17:17:00,
2013-07-10 13:22:00,76.0,70.1,29.91,SSW,203,1.1,2.2,82,0.00,,,0.05,WUHU216HW,2013-07-10 17:22:00,
2013-07-10 13:27:00,76.1,70.7,29.91,SSE,158,1.1,2.2,83,0.00,,,0.05,WUHU216HW,2013-07-10 17:27:00,
2013-07-10 13:32:00,76.0,69.8,29.91,SW,225,1.1,1.8,81,0.00,,,0.05,WUHU216HW,2013-07-10 17:32:00,
2013-07-10 13:37:00,75.6,69.4,29.90,South,189,1.6,2.0,81,0.00,,,0.05,WUHU216HW,2013-07-10 17:37:00,
2013-07-10 13:42:00,75.2,69.1,29.90,South,180,1.3,2.0,81,0.00,,,0.05,WUHU216HW,2013-07-10 17:42:00,
2013-07-10 13:47:00,75.2,69.1,29.89,SE,135,1.8,1.8,81,0.00,,,0.05,WUHU216HW,2013-07-10 17:47:00,
2013-07-10 13:52:00,75.6,69.8,29.89,SSE,158,0.4,1.8,82,0.00,,,0.05,WUHU216HW,2013-07-10 17:52:00,
2013-07-10 13:57:00,76.0,69.8,29.89,South,180,1.8,2.0,81,0.00,,,0.05,WUHU216HW,2013-07-10 17:57:00,
2013-07-10 14:02:00,76.5,70.3,29.89,South,180,1.1,2.0,81,0.00,,,0.05,WUHU216HW,2013-07-10 18:02:00,
2013-07-10 14:07:00,76.7,70.4,29.88,SE,135,1.3,2.9,81,0.00,,,0.05,WUHU216HW,2013-07-10 18:07:00,
2013-07-10 14:12:00,76.3,70.1,29.88,South,180,0.6,2.9,81,0.00,,,0.05,WUHU216HW,2013-07-10 18:12:00,
2013-07-10 14:17:00,76.1,70.3,29.87,South,170,0.8,1.3,82,0.00,,,0.05,WUHU216HW,2013-07-10 18:17:00,
2013-07-10 14:22:00,76.5,70.6,29.87,SSE,158,1.1,1.1,82,0.00,,,0.05,WUHU216HW,2013-07-10 18:22:00,
2013-07-10 14:27:00,76.9,70.9,29.87,SSE,158,1.1,1.6,82,0.00,,,0.05,WUHU216HW,2013-07-10 18:27:00,
2013-07-10 14:32:00,76.5,70.3,29.87,SSE,158,1.1,1.6,81,0.00,,,0.05,WUHU216HW,2013-07-10 18:32:00,
2013-07-10 14:37:00,76.1,69.9,29.87,SSW,211,1.5,1.8,81,0.00,,,0.05,WUHU216HW,2013-07-10 18:37:00,
2013-07-10 14:42:00,76.0,69.8,29.86,SSE,158,2.0,2.0,81,0.00,,,0.05,WUHU216HW,2013-07-10 18:42:00,
2013-07-10 14:47:00,75.6,69.8,29.86,SSE,168,0.8,2.0,82,0.00,,,0.05,WUHU216HW,2013-07-10 18:47:00,
2013-07-10 14:52:00,75.6,69.8,29.86,SSW,203,1.0,1.3,82,0.00,,,0.05,WUHU216HW,2013-07-10 18:52:00,
2013-07-10 14:57:00,75.1,69.6,29.86,SSW,203,0.6,1.6,83,0.00,,,0.05,WUHU216HW,2013-07-10 18:57:00,
2013-07-10 15:02:00,74.5,69.0,29.86,South,180,1.6,1.6,83,0.00,,,0.05,WUHU216HW,2013-07-10 19:02:00,
2013-07-10 15:07:00,74.0,68.9,29.86,South,180,0.4,1.8,84,0.06,,,0.11,WUHU216HW,2013-07-10 19:07:00,
2013-07-10 15:12:00,73.6,68.5,29.85,South,180,0.0,1.8,84,0.08,,,0.13,WUHU216HW,2013-07-10 19:12:00,
2013-07-10 15:17:00,73.4,68.7,29.85,NNW,338,0.4,0.4,85,0.12,,,0.17,WUHU216HW,2013-07-10 19:17:00,
2013-07-10 15:22:00,73.1,68.3,29.84,North,0,0.6,1.1,85,0.14,,,0.19,WUHU216HW,2013-07-10 19:22:00,
2013-07-10 15:27:00,72.7,68.3,29.84,SSW,203,1.3,1.3,86,0.14,,,0.19,WUHU216HW,2013-07-10 19:27:00,
2013-07-10 15:32:00,72.5,67.8,29.86,SSW,203,1.8,3.6,85,0.14,,,0.19,WUHU216HW,2013-07-10 19:32:00,
2013-07-10 15:37:00,72.4,68.0,29.86,South,180,0.6,3.6,86,0.14,,,0.19,WUHU216HW,2013-07-10 19:37:00,
2013-07-10 15:42:00,72.5,68.1,29.86,SSW,203,1.5,1.8,86,0.15,,,0.20,WUHU216HW,2013-07-10 19:42:00,
2013-07-10 15:47:00,72.4,68.3,29.86,SSE,158,2.5,2.5,87,0.17,,,0.22,WUHU216HW,2013-07-10 19:47:00,
2013-07-10 15:52:00,72.2,68.1,29.85,WSW,248,2.5,2.5,87,0.28,,,0.33,WUHU216HW,2013-07-10 19:52:00,
2013-07-10 15:57:00,71.8,68.0,29.86,South,180,1.8,2.5,88,0.29,,,0.34,WUHU216HW,2013-07-10 19:57:00,
2013-07-10 16:02:00,72.0,68.2,29.86,South,180,1.8,1.8,88,0.28,,,0.35,WUHU216HW,2013-07-10 20:02:00,
2013-07-10 16:07:00,72.4,68.6,29.85,South,180,2.2,2.2,88,0.24,,,0.36,WUHU216HW,2013-07-10 20:07:00,
2013-07-10 16:12:00,72.5,68.8,29.85,South,180,1.9,2.2,88,0.22,,,0.36,WUHU216HW,2013-07-10 20:12:00,
2013-07-10 16:17:00,72.7,68.9,29.85,SSW,203,0.9,2.2,88,0.18,,,0.36,WUHU216HW,2013-07-10 20:17:00,
2013-07-10 16:23:00,72.9,69.1,29.85,South,180,0.4,1.3,88,0.18,,,0.37,WUHU216HW,2013-07-10 20:23:00,
2013-07-10 16:28:00,72.9,69.1,29.85,South,180,1.4,1.8,88,0.18,,,0.37,WUHU216HW,2013-07-10 20:28:00,
2013-07-10 16:33:00,73.1,69.7,29.85,South,180,1.1,1.8,89,0.19,,,0.38,WUHU216HW,2013-07-10 20:33:00,
2013-07-10 16:38:00,73.1,69.7,29.85,South,180,0.7,1.8,89,0.19,,,0.38,WUHU216HW,2013-07-10 20:38:00,
2013-07-10 16:43:00,73.3,69.8,29.85,South,180,0.6,1.1,89,0.17,,,0.38,WUHU216HW,2013-07-10 20:43:00,
2013-07-10 16:48:00,73.3,69.8,29.85,SSE,158,0.4,1.1,89,0.07,,,0.38,WUHU216HW,2013-07-10 20:48:00,
2013-07-10 16:53:00,73.4,70.0,29.85,West,271,0.6,1.1,89,0.04,,,0.38,WUHU216HW,2013-07-10 20:53:00,
2013-07-10 16:58:00,73.8,70.4,29.84,NW,315,0.0,0.7,89,0.03,,,0.38,WUHU216HW,2013-07-10 20:58:00,
2013-07-10 17:03:00,74.2,70.4,29.85,NW,315,0.0,0.4,88,0.03,,,0.38,WUHU216HW,2013-07-10 21:03:00,
2013-07-10 17:08:00,74.5,70.7,29.85,NW,315,0.4,0.4,88,0.02,,,0.38,WUHU216HW,2013-07-10 21:08:00,
2013-07-10 17:13:00,74.3,70.6,29.84,WNW,293,0.4,0.7,88,0.02,,,0.38,WUHU216HW,2013-07-10 21:13:00,
2013-07-10 17:18:00,74.3,70.6,29.84,WNW,293,0.0,0.7,88,0.01,,,0.38,WUHU216HW,2013-07-10 21:18:00,
2013-07-10 17:23:00,74.5,70.7,29.84,WNW,293,0.0,0.0,88,0.01,,,0.38,WUHU216HW,2013-07-10 21:23:00,
2013-07-10 17:28:00,74.3,70.6,29.84,WNW,293,0.0,0.0,88,0.01,,,0.38,WUHU216HW,2013-07-10 21:28:00,
2013-07-10 17:33:00,74.0,70.2,29.84,WNW,293,0.0,0.0,88,0.00,,,0.38,WUHU216HW,2013-07-10 21:33:00,
2013-07-10 17:38:00,73.8,70.0,29.84,NW,315,0.0,0.0,88,0.00,,,0.38,WUHU216HW,2013-07-10 21:38:00,
2013-07-10 17:43:00,73.6,69.8,29.84,NW,315,0.0,0.2,88,0.00,,,0.38,WUHU216HW,2013-07-10 21:43:00,
2013-07-10 17:48:00,73.6,69.8,29.84,NW,315,0.0,0.4,88,0.00,,,0.38,WUHU216HW,2013-07-10 21:48:00,
2013-07-10 17:53:00,73.4,69.7,29.84,West,270,0.6,0.9,88,0.00,,,0.38,WUHU216HW,2013-07-10 21:53:00,
2013-07-10 17:58:00,73.6,69.8,29.83,West,270,0.0,0.9,88,0.00,,,0.38,WUHU216HW,2013-07-10 21:58:00,
2013-07-10 18:03:00,73.8,70.0,29.83,West,270,0.7,0.7,88,0.00,,,0.38,WUHU216HW,2013-07-10 22:03:00,
2013-07-10 18:08:00,73.8,70.0,29.83,West,270,0.8,0.9,88,0.00,,,0.38,WUHU216HW,2013-07-10 22:08:00,
2013-07-10 18:13:00,73.6,69.8,29.83,WSW,248,0.0,0.9,88,0.00,,,0.38,WUHU216HW,2013-07-10 22:13:00,
2013-07-10 18:18:00,73.6,69.8,29.84,WSW,248,0.0,0.9,88,0.00,,,0.38,WUHU216HW,2013-07-10 22:18:00,
2013-07-10 18:23:00,73.6,69.8,29.84,WSW,248,0.0,0.7,88,0.00,,,0.38,WUHU216HW,2013-07-10 22:23:00,
2013-07-10 18:28:00,73.6,69.8,29.83,WSW,248,0.3,0.9,88,0.00,,,0.38,WUHU216HW,2013-07-10 22:28:00,
2013-07-10 18:33:00,73.6,69.8,29.84,North,0,0.0,0.9,88,0.00,,,0.38,WUHU216HW,2013-07-10 22:33:00,
2013-07-10 18:38:00,73.6,69.8,29.84,North,0,0.4,0.4,88,0.00,,,0.38,WUHU216HW,2013-07-10 22:38:00,
2013-07-10 18:43:00,73.6,69.8,29.84,North,0,0.3,0.4,88,0.00,,,0.38,WUHU216HW,2013-07-10 22:43:00,
2013-07-10 18:48:00,73.4,69.7,29.83,NNE,23,0.0,0.7,88,0.00,,,0.38,WUHU216HW,2013-07-10 22:48:00,
2013-07-10 18:53:00,73.3,69.5,29.84,ESE,113,0.4,0.7,88,0.00,,,0.38,WUHU216HW,2013-07-10 22:53:00,
2013-07-10 18:58:00,73.1,69.3,29.84,SSE,158,1.6,1.6,88,0.00,,,0.38,WUHU216HW,2013-07-10 22:58:00,
2013-07-10 19:03:00,72.7,68.9,29.84,SSE,158,1.6,2.0,88,0.00,,,0.38,WUHU216HW,2013-07-10 23:03:00,
2013-07-10 19:08:00,72.5,68.8,29.84,SSE,158,1.2,2.0,88,0.00,,,0.38,WUHU216HW,2013-07-10 23:08:00,
2013-07-10 19:13:00,72.5,68.8,29.84,SSE,158,0.8,1.3,88,0.00,,,0.38,WUHU216HW,2013-07-10 23:13:00,
2013-07-10 19:18:00,72.4,68.6,29.84,SSE,158,0.4,1.3,88,0.00,,,0.38,WUHU216HW,2013-07-10 23:18:00,
2013-07-10 19:23:00,72.4,68.6,29.84,SSE,158,1.1,1.1,88,0.00,,,0.38,WUHU216HW,2013-07-10 23:23:00,
2013-07-10 19:28:00,72.4,68.6,29.84,SSE,158,0.4,1.1,88,0.00,,,0.38,WUHU216HW,2013-07-10 23:28:00,
2013-07-10 19:33:00,72.4,68.6,29.84,SSE,158,0.0,0.9,88,0.00,,,0.38,WUHU216HW,2013-07-10 23:33:00,
2013-07-10 19:38:00,72.4,68.6,29.84,SSE,158,0.2,0.2,88,0.00,,,0.38,WUHU216HW,2013-07-10 23:38:00,
2013-07-10 19:43:00,72.4,68.6,29.84,SSE,158,0.0,0.7,88,0.00,,,0.38,WUHU216HW,2013-07-10 23:43:00,
2013-07-10 19:48:00,72.4,68.6,29.84,SSE,158,0.0,0.7,88,0.00,,,0.38,WUHU216HW,2013-07-10 23:48:00,
2013-07-10 19:53:00,72.4,68.6,29.84,SSE,158,0.4,0.4,88,0.00,,,0.38,WUHU216HW,2013-07-10 23:53:00,
2013-07-10 19:58:00,72.4,68.6,29.84,SSE,158,0.4,0.7,88,0.00,,,0.38,WUHU216HW,2013-07-10 23:58:00,
2013-07-10 20:03:00,72.2,68.4,29.84,SSE,158,0.0,0.7,88,0.00,,,0.38,WUHU216HW,2013-07-11 00:03:00,
2013-07-10 20:08:00,72.0,68.2,29.84,SSE,158,0.4,0.4,88,0.00,,,0.38,WUHU216HW,2013-07-11 00:08:00,
2013-07-10 20:13:00,71.8,68.0,29.83,SSE,158,0.9,0.9,88,0.00,,,0.38,WUHU216HW,2013-07-11 00:13:00,
2013-07-10 20:18:00,71.6,67.9,29.83,SSE,158,0.7,0.9,88,0.00,,,0.38,WUHU216HW,2013-07-11 00:18:00,
2013-07-10 20:23:00,71.6,67.9,29.83,SSE,158,0.8,0.9,88,0.00,,,0.38,WUHU216HW,2013-07-11 00:23:00,
2013-07-10 20:28:00,71.6,67.9,29.83,SSE,158,0.8,1.1,88,0.00,,,0.38,WUHU216HW,2013-07-11 00:28:00,
2013-07-10 20:33:00,71.5,67.7,29.84,SSE,158,2.2,2.2,88,0.00,,,0.38,WUHU216HW,2013-07-11 00:33:00,
2013-07-10 20:38:00,71.5,67.7,29.84,SSE,158,0.4,2.2,88,0.00,,,0.38,WUHU216HW,2013-07-11 00:38:00,
2013-07-10 20:43:00,71.3,67.5,29.84,SSE,158,1.4,1.8,88,0.00,,,0.38,WUHU216HW,2013-07-11 00:43:00,
2013-07-10 20:48:00,71.1,67.3,29.84,SSW,203,0.4,1.8,88,0.00,,,0.38,WUHU216HW,2013-07-11 00:48:00,
2013-07-10 20:53:00,71.1,67.3,29.84,SSW,203,0.0,0.9,88,0.00,,,0.38,WUHU216HW,2013-07-11 00:53:00,
2013-07-10 20:58:00,71.1,67.3,29.84,SSW,203,0.9,1.1,88,0.00,,,0.38,WUHU216HW,2013-07-11 00:58:00,
2013-07-10 21:03:00,70.9,67.1,29.84,SSW,203,0.0,1.6,88,0.00,,,0.38,WUHU216HW,2013-07-11 01:03:00,
2013-07-10 21:08:00,70.9,67.1,29.85,SSW,203,0.4,1.6,88,0.00,,,0.38,WUHU216HW,2013-07-11 01:08:00,
2013-07-10 21:13:00,70.9,67.1,29.84,SSW,203,0.0,0.4,88,0.00,,,0.38,WUHU216HW,2013-07-11 01:13:00,
2013-07-10 21:18:00,70.9,67.1,29.84,SSW,203,0.0,0.4,88,0.00,,,0.38,WUHU216HW,2013-07-11 01:18:00,
2013-07-10 21:23:00,70.7,67.0,29.84,SSW,203,0.0,0.0,88,0.00,,,0.38,WUHU216HW,2013-07-11 01:23:00,
2013-07-10 21:28:00,70.6,66.8,29.84,SSW,203,0.0,0.0,88,0.00,,,0.38,WUHU216HW,2013-07-11 01:28:00,
2013-07-10 21:33:00,70.6,66.8,29.85,SSW,203,0.4,0.4,88,0.00,,,0.38,WUHU216HW,2013-07-11 01:33:00,
2013-07-10 21:38:00,70.6,66.8,29.85,SSW,203,0.0,0.4,88,0.00,,,0.38,WUHU216HW,2013-07-11 01:38:00,
2013-07-10 21:43:00,70.6,66.8,29.85,SSW,203,0.4,1.1,88,0.00,,,0.38,WUHU216HW,2013-07-11 01:43:00,
2013-07-10 21:48:00,70.4,66.6,29.84,SSW,203,0.9,1.1,88,0.00,,,0.38,WUHU216HW,2013-07-11 01:48:00,
2013-07-10 21:53:00,70.4,67.0,29.85,SSW,211,1.5,2.2,89,0.00,,,0.38,WUHU216HW,2013-07-11 01:53:00,
2013-07-10 21:58:00,70.4,67.0,29.85,SW,225,1.3,2.2,89,0.00,,,0.38,WUHU216HW,2013-07-11 01:58:00,
2013-07-10 22:03:00,70.4,67.0,29.85,SSW,203,1.1,1.3,89,0.00,,,0.38,WUHU216HW,2013-07-11 02:03:00,
2013-07-10 22:08:00,70.2,66.8,29.85,SSW,203,0.8,1.3,89,0.00,,,0.38,WUHU216HW,2013-07-11 02:08:00,
2013-07-10 22:13:00,70.2,66.8,29.85,SSW,203,1.0,1.6,89,0.00,,,0.38,WUHU216HW,2013-07-11 02:13:00,
2013-07-10 22:18:00,70.2,66.8,29.85,SSW,203,1.4,1.6,89,0.00,,,0.38,WUHU216HW,2013-07-11 02:18:00,
2013-07-10 22:23:00,70.0,66.6,29.85,SSW,203,0.9,1.6,89,0.00,,,0.38,WUHU216HW,2013-07-11 02:23:00,
2013-07-10 22:28:00,70.0,66.6,29.85,SSW,203,0.7,0.9,89,0.00,,,0.38,WUHU216HW,2013-07-11 02:28:00,
2013-07-10 22:33:00,69.8,66.4,29.85,SSW,203,0.8,0.9,89,0.00,,,0.38,WUHU216HW,2013-07-11 02:33:00,
2013-07-10 22:38:00,69.8,66.4,29.84,SSW,203,0.4,0.9,89,0.00,,,0.38,WUHU216HW,2013-07-11 02:38:00,
2013-07-10 22:43:00,69.8,66.4,29.85,SW,225,0.0,0.9,89,0.00,,,0.38,WUHU216HW,2013-07-11 02:43:00,
2013-07-10 22:48:00,69.8,66.4,29.85,SW,225,0.7,0.9,89,0.00,,,0.38,WUHU216HW,2013-07-11 02:48:00,
2013-07-10 22:53:00,69.7,65.9,29.84,SW,225,0.0,0.7,88,0.00,,,0.38,WUHU216HW,2013-07-11 02:53:00,
2013-07-10 22:58:00,69.7,65.9,29.85,SW,225,0.0,0.0,88,0.00,,,0.38,WUHU216HW,2013-07-11 02:58:00,
2013-07-10 23:03:00,69.5,65.7,29.85,SW,225,0.0,0.0,88,0.00,,,0.38,WUHU216HW,2013-07-11 03:03:00,
2013-07-10 23:08:00,69.5,65.7,29.85,SW,225,0.0,0.0,88,0.00,,,0.38,WUHU216HW,2013-07-11 03:08:00,
2013-07-10 23:13:00,69.5,65.7,29.85,SW,225,0.0,0.0,88,0.00,,,0.38,WUHU216HW,2013-07-11 03:13:00,
2013-07-10 23:18:00,69.5,65.7,29.84,SW,225,0.0,0.0,88,0.00,,,0.38,WUHU216HW,2013-07-11 03:18:00,
2013-07-10 23:23:00,69.5,65.7,29.84,SW,225,0.0,0.0,88,0.00,,,0.38,WUHU216HW,2013-07-11 03:23:00,
2013-07-10 23:28:00,69.3,65.6,29.84,SW,225,0.4,0.4,88,0.00,,,0.38,WUHU216HW,2013-07-11 03:28:00,
2013-07-10 23:33:00,69.3,65.6,29.84,SW,225,0.2,0.4,88,0.00,,,0.38,WUHU216HW,2013-07-11 03:33:00,
2013-07-10 23:38:00,69.3,65.6,29.84,SW,225,0.2,0.7,88,0.00,,,0.38,WUHU216HW,2013-07-11 03:38:00,
2013-07-10 23:43:00,69.1,65.4,29.83,SW,225,0.2,0.7,88,0.00,,,0.38,WUHU216HW,2013-07-11 03:43:00,
2013-07-10 23:48:00,69.1,65.7,29.83,SW,225,0.8,1.1,89,0.00,,,0.38,WUHU216HW,2013-07-11 03:48:00,
2013-07-10 23:53:00,69.1,65.7,29.83,SSW,203,1.1,1.1,89,0.00,,,0.38,WUHU216HW,2013-07-11 03:53:00,
2013-07-10 23:58:00,68.9,65.5,29.83,SSW,203,0.9,1.1,89,0.00,,,0.38,WUHU216HW,2013-07-11 03:58:00,